Torna al catalogo

COSMOS 586

AttivoMilitarePO
NORAD 6828·PAYLOAD·🇷🇺 Russia

Lanciato Sep 14, 1973 da Plesetsk Cosmodrome

Loading…

Prossimi Passaggi (prossime 24 ore)

TLE

AggiornatoSource: Space-Track

Epoca: Sep 14, 2026, 13:26 UTC

1 06828U 73065A   26257.55982896  .00000033  00000-0  18273-4 0  9990
2 06828  82.9370  96.9275 0026628 314.0439  63.2678 13.75382914659185

Traccia COSMOS 586 in tempo reale con AllMySat

Download on the App Store